• In Uzbekistan
  • List of Countries
  • For 7 days
  • Water Temperature
  • Satellite Maps
  • Weather Map
  • Weather Widgets
  • user-avatar
    Login

    Hourly Weather Solden

    Today, 20 September, Wednesday

    Time Temperature Precipitation Wind Pressure Humidity
    00:00 -6°C° 0.1 mm 3 mps 580 mmHg 88%
    01:00 -5°C° 0 mm 3 mps 580 mmHg 87%
    02:00 -5°C° 0.1 mm 3 mps 580 mmHg 87%
    03:00 -5°C° 0.1 mm 3 mps 580 mmHg 88%
    04:00 -5°C° 0.1 mm 3 mps 580 mmHg 88%
    05:00 -5°C° 0 mm 3 mps 580 mmHg 86%
    06:00 -5°C° 0 mm 3 mps 580 mmHg 85%
    07:00 -4°C° 0 mm 3 mps 581 mmHg 83%
    08:00 -2°C° 0 mm 3 mps 582 mmHg 75%
    09:00 0°C° 0 mm 3 mps 582 mmHg 67%
    10:00 +2°C° 0 mm 3 mps 583 mmHg 60%
    11:00 +3°C° 0 mm 3 mps 584 mmHg 58%
    12:00 +3°C° 0 mm 3 mps 584 mmHg 56%
    13:00 +5°C° 0 mm 2 mps 584 mmHg 54%
    14:00 +5°C° 0 mm 2 mps 584 mmHg 55%
    15:00 +5°C° 0 mm 2 mps 584 mmHg 55%
    16:00 +4°C° 0 mm 2 mps 584 mmHg 56%
    17:00 +2°C° 0 mm 2 mps 583 mmHg 64%
    18:00 -1°C° 0 mm 2 mps 582 mmHg 71%
    19:00 -3°C° 0 mm 2 mps 581 mmHg 79%
    20:00 -3°C° 0 mm 2 mps 582 mmHg 81%
    21:00 -4°C° 0 mm 2 mps 582 mmHg 83%
    22:00 -5°C° 0 mm 2 mps 582 mmHg 85%
    23:00 -5°C° 0 mm 2 mps 582 mmHg 85%

    Tomorrow, 21 September, Thursday

    Time Temperature Precipitation Wind Pressure Humidity
    00:00 -5°C° 0 mm 2 mps 582 mmHg 85%
    01:00 -4°C° 0 mm 1 mps 582 mmHg 85%
    02:00 -4°C° 0 mm 1 mps 581 mmHg 82%
    03:00 -4°C° 0 mm 1 mps 581 mmHg 79%
    04:00 -4°C° 0 mm 1 mps 581 mmHg 76%
    05:00 -3°C° 0 mm 1 mps 582 mmHg 72%
    06:00 -2°C° 0 mm 1 mps 582 mmHg 67%
    07:00 -2°C° 0 mm 1 mps 582 mmHg 63%
    08:00 +1°C° 0 mm 1 mps 583 mmHg 57%
    09:00 +4°C° 0 mm 1 mps 585 mmHg 51%
    10:00 +7°C° 0 mm 1 mps 586 mmHg 46%
    11:00 +8°C° 0 mm 1 mps 586 mmHg 45%
    12:00 +9°C° 0 mm 1 mps 586 mmHg 44%
    13:00 +10°C° 0 mm 1 mps 586 mmHg 43%
    14:00 +10°C° 0 mm 1 mps 586 mmHg 44%
    15:00 +9°C° 0 mm 1 mps 586 mmHg 46%
    16:00 +8°C° 0 mm 2 mps 586 mmHg 48%
    17:00 +6°C° 0 mm 1 mps 584 mmHg 57%
    18:00 +4°C° 0 mm 1 mps 583 mmHg 66%
    19:00 +1°C° 0 mm 1 mps 582 mmHg 75%
    20:00 +1°C° 0 mm 1 mps 582 mmHg 76%
    21:00 0°C° 0 mm 1 mps 582 mmHg 77%
    22:00 0°C° 0 mm 1 mps 583 mmHg 77%
    23:00 0°C° 0 mm 1 mps 583 mmHg 75%

    Day after tomorrow, 22 September, Friday

    Time Temperature Precipitation Wind Pressure Humidity
    00:00 0°C° 0 mm 1 mps 583 mmHg 74%
    01:00 0°C° 0 mm 1 mps 583 mmHg 72%
    02:00 0°C° 0 mm 1 mps 583 mmHg 70%
    03:00 0°C° 0 mm 1 mps 582 mmHg 68%
    04:00 0°C° 0 mm 1 mps 582 mmHg 66%
    05:00 +1°C° 0 mm 1 mps 583 mmHg 65%
    06:00 +1°C° 0 mm 1 mps 583 mmHg 63%
    07:00 +2°C° 0 mm 1 mps 584 mmHg 61%
    08:00 +5°C° 0 mm 1 mps 585 mmHg 57%
    09:00 +7°C° 0 mm 1 mps 586 mmHg 52%
    10:00 +10°C° 0 mm 1 mps 588 mmHg 47%
    11:00 +11°C° 0 mm 1 mps 588 mmHg 47%
    12:00 +11°C° 0 mm 1 mps 588 mmHg 47%
    13:00 +12°C° 0 mm 1 mps 589 mmHg 47%
    14:00 +12°C° 0 mm 1 mps 588 mmHg 49%
    15:00 +10°C° 0 mm 2 mps 588 mmHg 52%
    16:00 +10°C° 0 mm 2 mps 588 mmHg 55%
    17:00 +8°C° 0 mm 1 mps 587 mmHg 65%
    18:00 +6°C° 0 mm 1 mps 586 mmHg 75%
    19:00 +3°C° 0 mm 1 mps 585 mmHg 84%
    20:00 +3°C° 0 mm 1 mps 585 mmHg 86%
    21:00 +2°C° 0 mm 1 mps 585 mmHg 87%
    22:00 +2°C° 0 mm 1 mps 585 mmHg 88%
    23:00 +2°C° 0 mm 1 mps 585 mmHg 87%

    23 September, Saturday

    Time Temperature Precipitation Wind Pressure Humidity
    00:00 +2°C° 0 mm 1 mps 585 mmHg 87%
    01:00 +2°C° 0 mm 1 mps 585 mmHg 86%
    02:00 +2°C° 0 mm 1 mps 585 mmHg 86%
    03:00 +2°C° 0 mm 1 mps 585 mmHg 85%
    04:00 +1°C° 0 mm 1 mps 585 mmHg 84%
    05:00 +2°C° 0 mm 1 mps 585 mmHg 83%
    06:00 +2°C° 0 mm 1 mps 586 mmHg 81%
    07:00 +3°C° 0 mm 1 mps 586 mmHg 79%
    08:00 +5°C° 0 mm 1 mps 587 mmHg 72%
    09:00 +7°C° 0 mm 1 mps 588 mmHg 64%
    10:00 +10°C° 0 mm 1 mps 589 mmHg 56%
    11:00 +10°C° 0 mm 1 mps 589 mmHg 55%
    12:00 +11°C° 0 mm 1 mps 589 mmHg 54%
    13:00 +11°C° 0 mm 1 mps 589 mmHg 53%
    14:00 +11°C° 0.2 mm 1 mps 589 mmHg 56%
    15:00 +10°C° 0.2 mm 1 mps 588 mmHg 59%
    16:00 +10°C° 0.2 mm 1 mps 588 mmHg 62%
    17:00 +8°C° 0.2 mm 1 mps 587 mmHg 71%
    18:00 +6°C° 0.2 mm 1 mps 586 mmHg 79%
    19:00 +2°C° 0.2 mm 0 mps 586 mmHg 88%
    20:00 +2°C° 0.1 mm 0 mps 585 mmHg 88%
    21:00 +3°C° 0.1 mm 1 mps 585 mmHg 89%
    22:00 +2°C° 0.1 mm 1 mps 585 mmHg 90%
    23:00 +2°C° 0 mm 1 mps 585 mmHg 89%

    24 September, Sunday

    Time Temperature Precipitation Wind Pressure Humidity
    00:00 +2°C° 0 mm 1 mps 585 mmHg 89%
    01:00 +2°C° 0 mm 1 mps 585 mmHg 88%
    02:00 +2°C° 0 mm 1 mps 585 mmHg 88%
    03:00 +1°C° 0 mm 1 mps 585 mmHg 88%
    04:00 +1°C° 0 mm 1 mps 584 mmHg 88%
    05:00 +2°C° 0 mm 1 mps 585 mmHg 86%
    06:00 +2°C° 0 mm 1 mps 585 mmHg 85%
    07:00 +2°C° 0 mm 1 mps 585 mmHg 83%
    08:00 +5°C° 0 mm 1 mps 586 mmHg 73%
    09:00 +7°C° 0 mm 1 mps 588 mmHg 63%
    10:00 +10°C° 0 mm 1 mps 589 mmHg 53%
    11:00 +11°C° 0 mm 1 mps 589 mmHg 50%
    12:00 +11°C° 0 mm 1 mps 589 mmHg 47%
    13:00 +12°C° 0 mm 1 mps 590 mmHg 44%
    14:00 +12°C° 0 mm 2 mps 589 mmHg 45%
    15:00 +10°C° 0 mm 2 mps 589 mmHg 47%
    16:00 +10°C° 0 mm 2 mps 589 mmHg 49%
    17:00 +9°C° 0 mm 1 mps 588 mmHg 59%
    18:00 +6°C° 0 mm 1 mps 587 mmHg 69%
    19:00 +4°C° 0 mm 1 mps 586 mmHg 79%
    20:00 +3°C° 0 mm 1 mps 586 mmHg 81%
    21:00 +3°C° 0 mm 1 mps 586 mmHg 83%
    22:00 +3°C° 0 mm 1 mps 586 mmHg 85%
    23:00 +2°C° 0 mm 1 mps 586 mmHg 86%

    25 September, Monday

    Time Temperature Precipitation Wind Pressure Humidity
    00:00 +2°C° 0 mm 1 mps 586 mmHg 86%
    01:00 +2°C° 0 mm 1 mps 586 mmHg 87%
    02:00 +1°C° 0 mm 1 mps 585 mmHg 86%
    03:00 +1°C° 0 mm 1 mps 585 mmHg 85%
    04:00 +1°C° 0 mm 1 mps 585 mmHg 84%
    05:00 +1°C° 0 mm 1 mps 585 mmHg 79%
    06:00 +1°C° 0 mm 1 mps 585 mmHg 75%
    07:00 +2°C° 0 mm 1 mps 585 mmHg 71%
    08:00 +5°C° 0 mm 1 mps 587 mmHg 61%
    09:00 +8°C° 0 mm 1 mps 588 mmHg 51%
    10:00 +10°C° 0 mm 1 mps 589 mmHg 42%
    11:00 +11°C° 0 mm 1 mps 590 mmHg 41%
    12:00 +12°C° 0 mm 1 mps 590 mmHg 40%
    13:00 +13°C° 0 mm 1 mps 590 mmHg 38%
    14:00 +12°C° 0 mm 2 mps 589 mmHg 41%
    15:00 +12°C° 0 mm 2 mps 589 mmHg 44%
    16:00 +10°C° 0 mm 2 mps 588 mmHg 47%
    17:00 +9°C° 0 mm 1 mps 587 mmHg 59%
    18:00 +6°C° 0 mm 1 mps 586 mmHg 70%
    19:00 +4°C° 0 mm 1 mps 585 mmHg 82%
    20:00 +3°C° 0 mm 1 mps 585 mmHg 84%
    21:00 +3°C° 0 mm 1 mps 585 mmHg 86%
    22:00 +2°C° 0 mm 0 mps 585 mmHg 87%
    23:00 +3°C° 0 mm 1 mps 585 mmHg 87%
    Show more